Вернуться в каталог

STARLINK-35939

АктивенСвязьVLEO
NORAD 66584·PAYLOAD·🇺🇸 United States

Запущен Nov 21, 2025 с Cape Canaveral Space Force Station

Loading…

Ближайшие Пролёты (ближайшие 24 часа)

TLE

СвежийSource: CelesTrak SupGP

Эпоха: Sep 14, 2026, 22:55 UTC

1 66584C 25268AD  26257.95534722 -.00021282  00000+0 -77083-3 0  2572
2 66584  43.0031 357.8123 0001462 269.0004 312.4528 15.27588213    13

Отслеживайте STARLINK-35939 в реальном времени с AllMySat

Download on the App Store